,,,PA_Meas_PMT16A,,PR_Meas_QMR101_102,,RH_Meas_QMH101,,SR_Meas_QMS101,,TA_Meas_QMH101,,GenWind,,GenWind,
date,time,status,PA,status,PR,status,RH,status,SR,status,TA,status,DirAvg,status,SpdAvg,
2012-07-06, 00:00:04,VALID,998.712,VALID,0,VALID,92.3184,VALID,0,VALID,23.6036,VALID,85,VALID,0.372266,
2012-07-06, 00:01:04,VALID,998.704,VALID,0,VALID,92.0361,VALID,0,VALID,23.5841,VALID,29,VALID,0.624219,
2012-07-06, 00:02:04,VALID,998.688,VALID,0,VALID,91.8148,VALID,0,VALID,23.5256,VALID,11,VALID,0.913281,
2012-07-06, 00:03:04,VALID,998.646,VALID,0,VALID,92.0971,VALID,0,VALID,23.4866,VALID,11,VALID,0.844141,
2012-07-06, 00:04:04,VALID,998.636,VALID,0,VALID,92.3642,VALID,0,VALID,23.4671,VALID,10,VALID,0.667188,
2012-07-06, 00:05:04,VALID,998.638,VALID,0,VALID,92.5626,VALID,0,VALID,23.4493,VALID,10,VALID,0.417188,
2012-07-06, 00:06:04,VALID,998.606,VALID,0,VALID,92.7762,VALID,0,VALID,23.428,VALID,10,VALID,0.515234,
2012-07-06, 00:07:04,VALID,998.59,VALID,0,VALID,92.8601,VALID,0,VALID,23.389,VALID,10,VALID,0.255469,
2012-07-06, 00:08:04,VALID,998.547,VALID,0,VALID,92.944,VALID,0,VALID,23.389,VALID,10,VALID,0,
2012-07-06, 00:09:04,VALID,998.562,VALID,0,VALID,92.9669,VALID,0,VALID,23.3695,VALID,10,VALID,0,
2012-07-06, 00:10:04,VALID,998.544,VALID,0,VALID,92.7533,VALID,0,VALID,23.311,VALID,10,VALID,0.122656,
2012-07-06, 00:11:04,VALID,998.528,VALID,0,VALID,92.8067,VALID,0,VALID,23.2719,VALID,10,VALID,0.166016,
2012-07-06, 00:12:04,VALID,998.503,VALID,0,VALID,93.0661,VALID,0,VALID,23.2719,VALID,10,VALID,0.229297,
2012-07-06, 00:13:04,VALID,998.483,VALID,0,VALID,93.2034,VALID,0,VALID,23.2737,VALID,10,VALID,0.0121094,
2012-07-06, 00:14:04,VALID,998.485,VALID,0,VALID,93.3026,VALID,0,VALID,23.2719,VALID,10,VALID,0.322656,
2012-07-06, 00:15:04,VALID,998.521,VALID,0,VALID,93.3331,VALID,0,VALID,23.311,VALID,10,VALID,0.394922,
2012-07-06, 00:16:04,VALID,998.531,VALID,0,VALID,93.295,VALID,0,VALID,23.311,VALID,10,VALID,0.647656,
2012-07-06, 00:17:04,VALID,998.574,VALID,0,VALID,93.2111,VALID,0,VALID,23.3305,VALID,10,VALID,0.694141,
2012-07-06, 00:18:04,VALID,998.623,VALID,0,VALID,93.1271,VALID,0,VALID,23.3695,VALID,77,VALID,0.915625,
2012-07-06, 00:19:04,VALID,998.629,VALID,0,VALID,92.9135,VALID,0,VALID,23.389,VALID,82,VALID,1.08359,
2012-07-06, 00:20:04,VALID,998.622,VALID,0,VALID,92.5702,VALID,0,VALID,23.428,VALID,82,VALID,0.883984,
2012-07-06, 00:21:04,VALID,998.568,VALID,0,VALID,92.3642,VALID,0,VALID,23.4475,VALID,61,VALID,0.858984,
2012-07-06, 00:22:04,VALID,998.545,VALID,0,VALID,92.3337,VALID,0,VALID,23.4671,VALID,61,VALID,0.735547,
2012-07-06, 00:23:04,VALID,998.514,VALID,0,VALID,92.4023,VALID,0,VALID,23.5061,VALID,71,VALID,0.702734,
2012-07-06, 00:24:04,VALID,998.487,VALID,0,VALID,92.204,VALID,0,VALID,23.5451,VALID,58,VALID,0.793359,
2012-07-06, 00:25:04,VALID,998.504,VALID,0,VALID,92.2268,VALID,0,VALID,23.5256,VALID,17,VALID,1.04531,
2012-07-06, 00:26:04,VALID,998.529,VALID,0,VALID,92.3566,VALID,0,VALID,23.5451,VALID,17,VALID,0.697266,
2012-07-06, 00:27:04,VALID,998.546,VALID,0,VALID,92.3108,VALID,0,VALID,23.5256,VALID,17,VALID,0.486328,
2012-07-06, 00:28:04,VALID,998.538,VALID,0,VALID,92.5091,VALID,0,VALID,23.5451,VALID,17,VALID,0.609375,
2012-07-06, 00:29:04,VALID,998.538,VALID,0,VALID,92.5244,VALID,0,VALID,23.5256,VALID,17,VALID,0.852344,
2012-07-06, 00:30:04,VALID,998.536,VALID,0,VALID,92.5549,VALID,0,VALID,23.4671,VALID,17,VALID,0.642969,
2012-07-06, 00:31:04,VALID,998.53,VALID,0,VALID,92.6465,VALID,0,VALID,23.4493,VALID,17,VALID,0.75,
2012-07-06, 00:32:04,VALID,998.535,VALID,0,VALID,92.822,VALID,0,VALID,23.4085,VALID,17,VALID,0.630469,
2012-07-06, 00:33:04,VALID,998.557,VALID,0,VALID,92.944,VALID,0,VALID,23.389,VALID,17,VALID,0.647656,
2012-07-06, 00:34:04,VALID,998.595,VALID,0,VALID,93.028,VALID,0,VALID,23.4103,VALID,17,VALID,0.578125,
2012-07-06, 00:35:04,VALID,998.627,VALID,0,VALID,93.0585,VALID,0,VALID,23.389,VALID,17,VALID,0.530859,
2012-07-06, 00:36:04,VALID,998.622,VALID,0,VALID,93.1271,VALID,0,VALID,23.389,VALID,17,VALID,0.326172,
2012-07-06, 00:37:04,VALID,998.605,VALID,0,VALID,93.0585,VALID,0,VALID,23.3695,VALID,17,VALID,0.438281,
2012-07-06, 00:38:04,VALID,998.615,VALID,0,VALID,93.0356,VALID,0,VALID,23.3908,VALID,17,VALID,0.423047,
2012-07-06, 00:39:04,VALID,998.59,VALID,0,VALID,92.9898,VALID,0,VALID,23.3908,VALID,17,VALID,0.464453,
2012-07-06, 00:40:04,VALID,998.578,VALID,0,VALID,92.9745,VALID,0,VALID,23.389,VALID,17,VALID,0.469531,
2012-07-06, 00:41:04,VALID,998.568,VALID,0,VALID,92.9211,VALID,0,VALID,23.4085,VALID,17,VALID,0.374609,
2012-07-06, 00:42:04,VALID,998.576,VALID,0,VALID,92.8906,VALID,0,VALID,23.4085,VALID,17,VALID,0.211328,
2012-07-06, 00:43:04,VALID,998.565,VALID,0,VALID,92.7762,VALID,0,VALID,23.428,VALID,17,VALID,0.227734,
2012-07-06, 00:44:04,VALID,998.602,VALID,0,VALID,92.7533,VALID,0,VALID,23.4475,VALID,17,VALID,0.182031,
2012-07-06, 00:45:04,VALID,998.598,VALID,0,VALID,92.7075,VALID,0,VALID,23.4475,VALID,17,VALID,0.0113281,
2012-07-06, 00:46:04,VALID,998.608,VALID,0,VALID,92.6083,VALID,0,VALID,23.4671,VALID,17,VALID,0.310547,
2012-07-06, 00:47:04,VALID,998.593,VALID,0,VALID,92.4634,VALID,0,VALID,23.4671,VALID,17,VALID,0.535547,
2012-07-06, 00:48:04,VALID,998.6,VALID,0,VALID,92.3108,VALID,0,VALID,23.4671,VALID,17,VALID,0.603906,
2012-07-06, 00:49:04,VALID,998.587,VALID,0,VALID,92.1277,VALID,0,VALID,23.4866,VALID,17,VALID,0.548047,
2012-07-06, 00:50:04,VALID,998.599,VALID,0,VALID,91.9903,VALID,0,VALID,23.5061,VALID,17,VALID,0.662109,
2012-07-06, 00:51:04,VALID,998.606,VALID,0,VALID,91.8377,VALID,0,VALID,23.5061,VALID,28,VALID,0.825391,
2012-07-06, 00:52:04,VALID,998.608,VALID,0,VALID,91.7157,VALID,0,VALID,23.5256,VALID,64,VALID,0.730078,
2012-07-06, 00:53:04,VALID,998.62,VALID,0,VALID,91.6165,VALID,0,VALID,23.5451,VALID,78,VALID,0.911328,
2012-07-06, 00:54:04,VALID,998.602,VALID,0,VALID,91.441,VALID,0,VALID,23.6054,VALID,81,VALID,0.969531,
2012-07-06, 00:55:04,VALID,998.635,VALID,0,VALID,91.4257,VALID,0,VALID,23.5841,VALID,82,VALID,0.963281,
2012-07-06, 00:56:04,VALID,998.64,VALID,0,VALID,91.5326,VALID,0,VALID,23.5646,VALID,82,VALID,0.847656,
2012-07-06, 00:57:04,VALID,998.623,VALID,0,VALID,91.708,VALID,0,VALID,23.5646,VALID,82,VALID,0.653125,
2012-07-06, 00:58:04,VALID,998.603,VALID,0,VALID,91.8759,VALID,0,VALID,23.5451,VALID,82,VALID,0.502344,
2012-07-06, 00:59:04,VALID,998.653,VALID,0,VALID,91.9522,VALID,0,VALID,23.5451,VALID,82,VALID,0.312891,
2012-07-06, 01:00:04,VALID,998.617,VALID,0,VALID,92.1658,VALID,0,VALID,23.5451,VALID,82,VALID,0.252344,
2012-07-06, 01:01:04,VALID,998.615,VALID,0,VALID,92.2955,VALID,0,VALID,23.5664,VALID,82,VALID,0.299609,
2012-07-06, 01:02:04,VALID,998.607,VALID,0,VALID,92.3794,VALID,0,VALID,23.5256,VALID,82,VALID,0.310547,
2012-07-06, 01:03:04,VALID,998.631,VALID,0,VALID,92.532,VALID,0,VALID,23.5256,VALID,82,VALID,0.319922,
2012-07-06, 01:04:04,VALID,998.623,VALID,0,VALID,92.7533,VALID,0,VALID,23.5256,VALID,82,VALID,0.344141,
2012-07-06, 01:05:04,VALID,998.649,VALID,0,VALID,92.8448,VALID,0,VALID,23.5451,VALID,82,VALID,0.369531,
2012-07-06, 01:06:04,VALID,998.638,VALID,0,VALID,92.8525,VALID,0,VALID,23.5469,VALID,82,VALID,0.275391,
2012-07-06, 01:07:04,VALID,998.646,VALID,0,VALID,92.7685,VALID,0,VALID,23.5646,VALID,82,VALID,0.446094,
2012-07-06, 01:08:04,VALID,998.622,VALID,0,VALID,92.6236,VALID,0,VALID,23.5256,VALID,82,VALID,0.444922,
2012-07-06, 01:09:04,VALID,998.621,VALID,0,VALID,92.5854,VALID,0,VALID,23.5451,VALID,82,VALID,0.439063,
2012-07-06, 01:10:04,VALID,998.629,VALID,0,VALID,92.6083,VALID,0,VALID,23.5451,VALID,82,VALID,0.382813,
2012-07-06, 01:11:04,VALID,998.605,VALID,0,VALID,92.5549,VALID,0,VALID,23.5451,VALID,82,VALID,0.380469,
2012-07-06, 01:12:04,VALID,998.578,VALID,0,VALID,92.4405,VALID,0,VALID,23.5646,VALID,82,VALID,0.325781,
2012-07-06, 01:13:04,VALID,998.538,VALID,0,VALID,92.4863,VALID,0,VALID,23.5646,VALID,82,VALID,0.4125,
2012-07-06, 01:14:04,VALID,998.486,VALID,0,VALID,92.5244,VALID,0,VALID,23.6036,VALID,82,VALID,0.251172,
2012-07-06, 01:15:04,VALID,998.453,VALID,0,VALID,92.616,VALID,0,VALID,23.6232,VALID,82,VALID,0.278125,
2012-07-06, 01:16:04,VALID,998.431,VALID,0,VALID,92.6083,VALID,0,VALID,23.6427,VALID,82,VALID,0,
2012-07-06, 01:17:04,VALID,998.414,VALID,0,VALID,92.5854,VALID,0,VALID,23.6427,VALID,82,VALID,0,
2012-07-06, 01:18:04,VALID,998.387,VALID,0,VALID,92.6083,VALID,0,VALID,23.6622,VALID,82,VALID,0,
2012-07-06, 01:19:04,VALID,998.36,VALID,0,VALID,92.4863,VALID,0,VALID,23.6622,VALID,82,VALID,0.330078,
2012-07-06, 01:20:04,VALID,998.352,VALID,0,VALID,92.3947,VALID,0,VALID,23.6427,VALID,82,VALID,0.282031,
2012-07-06, 01:21:04,VALID,998.355,VALID,0,VALID,92.3184,VALID,0,VALID,23.6427,VALID,82,VALID,0.287891,
2012-07-06, 01:22:04,VALID,998.366,VALID,0,VALID,92.3947,VALID,0,VALID,23.6427,VALID,82,VALID,0.278906,
2012-07-06, 01:23:04,VALID,998.319,VALID,0,VALID,92.4328,VALID,0,VALID,23.6427,VALID,82,VALID,0.144141,
2012-07-06, 01:24:04,VALID,998.336,VALID,0,VALID,92.532,VALID,0,VALID,23.6622,VALID,82,VALID,0.1625,
2012-07-06, 01:25:04,VALID,998.331,VALID,0,VALID,92.4634,VALID,0,VALID,23.6622,VALID,82,VALID,0.178906,
2012-07-06, 01:26:04,VALID,998.326,VALID,0,VALID,92.4557,VALID,0,VALID,23.6622,VALID,82,VALID,0.208594,
2012-07-06, 01:27:04,VALID,998.339,VALID,0,VALID,92.4863,VALID,0,VALID,23.6622,VALID,82,VALID,0.294141,
2012-07-06, 01:28:04,VALID,998.322,VALID,0,VALID,92.5244,VALID,0,VALID,23.6622,VALID,82,VALID,0.334766,
2012-07-06, 01:29:04,VALID,998.344,VALID,0,VALID,92.4863,VALID,0,VALID,23.6622,VALID,82,VALID,0.426953,
2012-07-06, 01:30:04,VALID,998.311,VALID,0,VALID,92.4405,VALID,0,VALID,23.6427,VALID,82,VALID,0.353125,
2012-07-06, 01:31:04,VALID,998.355,VALID,0,VALID,92.4863,VALID,0,VALID,23.6427,VALID,82,VALID,0.201172,
2012-07-06, 01:32:04,VALID,998.319,VALID,0,VALID,92.5854,VALID,0,VALID,23.664,VALID,82,VALID,0.00117188,
2012-07-06, 01:33:04,VALID,998.305,VALID,0,VALID,92.6083,VALID,0,VALID,23.6232,VALID,82,VALID,0,
2012-07-06, 01:34:04,VALID,998.32,VALID,0,VALID,92.6007,VALID,0,VALID,23.6232,VALID,82,VALID,0,
2012-07-06, 01:35:04,VALID,998.336,VALID,0,VALID,92.677,VALID,0,VALID,23.6232,VALID,82,VALID,0,
2012-07-06, 01:36:04,VALID,998.336,VALID,0,VALID,92.7457,VALID,0,VALID,23.6427,VALID,82,VALID,0.0941406,
2012-07-06, 01:37:04,VALID,998.366,VALID,0,VALID,92.7762,VALID,0,VALID,23.6232,VALID,88,VALID,0.380078,
2012-07-06, 01:38:04,VALID,998.372,VALID,0,VALID,92.7228,VALID,0,VALID,23.664,VALID,170,VALID,0.983203,
2012-07-06, 01:39:04,VALID,998.346,VALID,0,VALID,92.3566,VALID,0,VALID,23.742,VALID,170,VALID,0.976172,
2012-07-06, 01:40:04,VALID,998.376,VALID,0,VALID,91.7767,VALID,0,VALID,23.8183,VALID,170,VALID,1.09844,
2012-07-06, 01:41:04,VALID,998.353,VALID,0,VALID,91.1663,VALID,0,VALID,23.9372,VALID,163,VALID,0.994922,
2012-07-06, 01:42:04,VALID,998.362,VALID,0,VALID,90.6094,VALID,0,VALID,23.9744,VALID,157,VALID,0.784375,
2012-07-06, 01:43:04,VALID,998.376,VALID,0,VALID,90.1974,VALID,0,VALID,24.0329,VALID,157,VALID,0.79375,
2012-07-06, 01:44:04,VALID,998.388,VALID,0,VALID,89.8464,VALID,0,VALID,24.0933,VALID,143,VALID,0.833203,
2012-07-06, 01:45:04,VALID,998.384,VALID,0,VALID,89.7091,VALID,0,VALID,24.072,VALID,143,VALID,0.724609,
2012-07-06, 01:46:04,VALID,998.382,VALID,0,VALID,89.6862,VALID,0,VALID,24.072,VALID,143,VALID,0.611328,
2012-07-06, 01:47:04,VALID,998.398,VALID,0,VALID,89.8388,VALID,0,VALID,24.0738,VALID,143,VALID,0.465234,
2012-07-06, 01:48:04,VALID,998.381,VALID,0,VALID,90.0066,VALID,0,VALID,24.0525,VALID,143,VALID,0.442578,
2012-07-06, 01:49:04,VALID,998.393,VALID,0,VALID,90.1897,VALID,0,VALID,24.0134,VALID,143,VALID,0.396094,
2012-07-06, 01:50:04,VALID,998.398,VALID,0,VALID,90.3271,VALID,0,VALID,24.0134,VALID,143,VALID,0.275,
2012-07-06, 01:51:04,VALID,998.405,VALID,0,VALID,90.4263,VALID,0,VALID,23.9939,VALID,143,VALID,0.227734,
2012-07-06, 01:52:04,VALID,998.405,VALID,0,VALID,90.5331,VALID,0,VALID,24.0153,VALID,143,VALID,0.288281,
2012-07-06, 01:53:04,VALID,998.412,VALID,0,VALID,90.4034,VALID,0,VALID,23.9939,VALID,143,VALID,0.448828,
2012-07-06, 01:54:04,VALID,998.418,VALID,0,VALID,90.2737,VALID,0,VALID,24.0134,VALID,143,VALID,0.430469,
2012-07-06, 01:55:04,VALID,998.431,VALID,0,VALID,90.1058,VALID,0,VALID,24.0329,VALID,143,VALID,0.333984,
2012-07-06, 01:56:04,VALID,998.413,VALID,0,VALID,90.4644,VALID,0,VALID,24.0525,VALID,143,VALID,0.514453,
2012-07-06, 01:57:04,VALID,998.42,VALID,0,VALID,90.8154,VALID,0,VALID,24.0329,VALID,143,VALID,0.614062,
2012-07-06, 01:58:04,VALID,998.418,VALID,0,VALID,90.9298,VALID,0,VALID,23.9939,VALID,143,VALID,0.704687,
2012-07-06, 01:59:04,VALID,998.433,VALID,0,VALID,91.0824,VALID,0,VALID,23.9177,VALID,143,VALID,0.678906,
2012-07-06, 02:00:04,VALID,998.452,VALID,0,VALID,91.3113,VALID,0,VALID,23.8378,VALID,143,VALID,0.596875,
2012-07-06, 02:01:04,VALID,998.447,VALID,0,VALID,91.6623,VALID,0,VALID,23.8183,VALID,143,VALID,0.513672,
2012-07-06, 02:02:04,VALID,998.43,VALID,0,VALID,91.8148,VALID,0,VALID,23.7793,VALID,143,VALID,0.451562,
2012-07-06, 02:03:04,VALID,998.434,VALID,0,VALID,92.1048,VALID,0,VALID,23.7597,VALID,143,VALID,0.398047,
2012-07-06, 02:04:04,VALID,998.406,VALID,0,VALID,92.1811,VALID,0,VALID,23.7811,VALID,143,VALID,0.444141,
2012-07-06, 02:05:04,VALID,998.432,VALID,0,VALID,92.1963,VALID,0,VALID,23.7207,VALID,143,VALID,0.492188,
2012-07-06, 02:06:04,VALID,998.397,VALID,0,VALID,92.1963,VALID,0,VALID,23.6817,VALID,143,VALID,0.580078,
2012-07-06, 02:07:04,VALID,998.406,VALID,0,VALID,92.3108,VALID,0,VALID,23.6427,VALID,143,VALID,0.544141,
2012-07-06, 02:08:04,VALID,998.433,VALID,0,VALID,92.4557,VALID,0,VALID,23.6036,VALID,143,VALID,0.457812,
2012-07-06, 02:09:04,VALID,998.417,VALID,0,VALID,92.6694,VALID,0,VALID,23.5841,VALID,143,VALID,0.395312,
2012-07-06, 02:10:04,VALID,998.397,VALID,0,VALID,92.8448,VALID,0,VALID,23.5841,VALID,143,VALID,0.231641,
2012-07-06, 02:11:04,VALID,998.388,VALID,0,VALID,92.9669,VALID,0,VALID,23.5646,VALID,143,VALID,0.137109,
2012-07-06, 02:12:04,VALID,998.397,VALID,0,VALID,93.0661,VALID,0,VALID,23.5646,VALID,143,VALID,0.0570313,
2012-07-06, 02:13:04,VALID,998.411,VALID,0,VALID,93.1424,VALID,0,VALID,23.5646,VALID,143,VALID,0,
2012-07-06, 02:14:04,VALID,998.412,VALID,0,VALID,93.2111,VALID,0,VALID,23.5646,VALID,143,VALID,0,
2012-07-06, 02:15:04,VALID,998.408,VALID,0,VALID,93.295,VALID,0,VALID,23.5646,VALID,143,VALID,0,
2012-07-06, 02:16:04,VALID,998.389,VALID,0,VALID,93.3408,VALID,0,VALID,23.5646,VALID,143,VALID,0.0757812,
2012-07-06, 02:17:04,VALID,998.394,VALID,0,VALID,93.3331,VALID,0,VALID,23.5646,VALID,143,VALID,0.600391,
2012-07-06, 02:18:04,VALID,998.366,VALID,0,VALID,93.295,VALID,0,VALID,23.5841,VALID,143,VALID,0.660937,
2012-07-06, 02:19:04,VALID,998.374,VALID,0,VALID,93.2645,VALID,0,VALID,23.6036,VALID,143,VALID,0.611719,
2012-07-06, 02:20:04,VALID,998.363,VALID,0,VALID,93.2416,VALID,0,VALID,23.6036,VALID,143,VALID,0.507031,
2012-07-06, 02:21:04,VALID,998.336,VALID,0,VALID,93.2111,VALID,0,VALID,23.6036,VALID,143,VALID,0.421875,
2012-07-06, 02:22:04,VALID,998.357,VALID,0,VALID,93.1653,VALID,0,VALID,23.5823,VALID,143,VALID,0.366797,
2012-07-06, 02:23:04,VALID,998.343,VALID,0,VALID,93.2034,VALID,0,VALID,23.6036,VALID,143,VALID,0.330078,
2012-07-06, 02:24:04,VALID,998.323,VALID,0,VALID,93.2721,VALID,0,VALID,23.5841,VALID,143,VALID,0.381641,
2012-07-06, 02:25:04,VALID,998.346,VALID,0,VALID,93.2797,VALID,0,VALID,23.5841,VALID,143,VALID,0.415625,
2012-07-06, 02:26:04,VALID,998.315,VALID,0,VALID,93.356,VALID,0,VALID,23.6036,VALID,143,VALID,0.463281,
2012-07-06, 02:27:04,VALID,998.313,VALID,0,VALID,93.3866,VALID,0,VALID,23.6036,VALID,143,VALID,0.496094,
2012-07-06, 02:28:04,VALID,998.293,VALID,0,VALID,93.4094,VALID,0,VALID,23.5841,VALID,143,VALID,0.417969,
2012-07-06, 02:29:04,VALID,998.303,VALID,0,VALID,93.3942,VALID,0,VALID,23.5841,VALID,143,VALID,0.457031,
2012-07-06, 02:30:04,VALID,998.294,VALID,0,VALID,93.44,VALID,0,VALID,23.5841,VALID,143,VALID,0.311328,
2012-07-06, 02:31:04,VALID,998.262,VALID,0,VALID,93.4171,VALID,0,VALID,23.5628,VALID,143,VALID,0.235156,
2012-07-06, 02:32:04,VALID,998.249,VALID,0,VALID,93.3942,VALID,0,VALID,23.5646,VALID,143,VALID,0.134375,
2012-07-06, 02:33:04,VALID,998.222,VALID,0,VALID,93.3942,VALID,0,VALID,23.5646,VALID,143,VALID,0.0828125,
2012-07-06, 02:34:04,VALID,998.217,VALID,0,VALID,93.4171,VALID,0,VALID,23.5451,VALID,143,VALID,0,
2012-07-06, 02:35:04,VALID,998.229,VALID,0,VALID,93.4247,VALID,0,VALID,23.5451,VALID,143,VALID,0,
2012-07-06, 02:36:04,VALID,998.193,VALID,0,VALID,93.4171,VALID,0,VALID,23.5664,VALID,143,VALID,0,
2012-07-06, 02:37:04,VALID,998.207,VALID,0,VALID,93.4628,VALID,0,VALID,23.5451,VALID,143,VALID,0,
2012-07-06, 02:38:04,VALID,998.174,VALID,0,VALID,93.501,VALID,0,VALID,23.5646,VALID,143,VALID,0,
2012-07-06, 02:39:04,VALID,998.178,VALID,0,VALID,93.5086,VALID,0,VALID,23.5451,VALID,143,VALID,0,
2012-07-06, 02:40:04,VALID,998.154,VALID,0,VALID,93.5773,VALID,0,VALID,23.5646,VALID,143,VALID,0,
2012-07-06, 02:41:04,VALID,998.156,VALID,0,VALID,93.5849,VALID,0,VALID,23.5646,VALID,143,VALID,0.451562,
2012-07-06, 02:42:04,VALID,998.158,VALID,0,VALID,93.501,VALID,0,VALID,23.5646,VALID,143,VALID,0.697266,
2012-07-06, 02:43:04,VALID,998.138,VALID,0,VALID,93.4018,VALID,0,VALID,23.5841,VALID,143,VALID,0.761719,
2012-07-06, 02:44:04,VALID,998.141,VALID,0,VALID,93.3789,VALID,0,VALID,23.625,VALID,143,VALID,0.655078,
2012-07-06, 02:45:04,VALID,998.148,VALID,0,VALID,93.3408,VALID,0,VALID,23.6427,VALID,143,VALID,0.508203,
2012-07-06, 02:46:04,VALID,998.128,VALID,0,VALID,93.3026,VALID,0,VALID,23.6817,VALID,143,VALID,0.505078,
2012-07-06, 02:47:04,VALID,998.136,VALID,0,VALID,93.2645,VALID,0,VALID,23.7012,VALID,143,VALID,0.403906,
2012-07-06, 02:48:04,VALID,998.128,VALID,0,VALID,93.2263,VALID,0,VALID,23.7207,VALID,143,VALID,0.3625,
2012-07-06, 02:49:04,VALID,998.126,VALID,0,VALID,93.2034,VALID,0,VALID,23.7616,VALID,143,VALID,0.360938,
2012-07-06, 02:50:04,VALID,998.118,VALID,0,VALID,93.1424,VALID,0,VALID,23.7597,VALID,143,VALID,0.361328,
2012-07-06, 02:51:04,VALID,998.134,VALID,0,VALID,93.1271,VALID,0,VALID,23.7793,VALID,143,VALID,0.189063,
2012-07-06, 02:52:04,VALID,998.125,VALID,0,VALID,93.0585,VALID,0,VALID,23.7988,VALID,143,VALID,0.293359,
2012-07-06, 02:53:04,VALID,998.11,VALID,0,VALID,92.944,VALID,0,VALID,23.8183,VALID,143,VALID,0.0179687,
2012-07-06, 02:54:04,VALID,998.081,VALID,0,VALID,92.822,VALID,0,VALID,23.8378,VALID,143,VALID,0,
2012-07-06, 02:55:04,VALID,998.099,VALID,0,VALID,92.7075,VALID,0,VALID,23.8378,VALID,143,VALID,0,
2012-07-06, 02:56:04,VALID,998.072,VALID,0,VALID,92.5397,VALID,0,VALID,23.8165,VALID,143,VALID,0.0015625,
2012-07-06, 02:57:04,VALID,998.083,VALID,0,VALID,92.2421,VALID,0,VALID,23.8183,VALID,143,VALID,0,
2012-07-06, 02:58:04,VALID,998.062,VALID,0,VALID,92.0895,VALID,0,VALID,23.8183,VALID,143,VALID,0.00507812,
2012-07-06, 02:59:04,VALID,998.036,VALID,0,VALID,92.2497,VALID,0,VALID,23.8573,VALID,143,VALID,0.625391,
2012-07-06, 03:00:04,VALID,998.041,VALID,0,VALID,92.3718,VALID,0,VALID,23.8555,VALID,143,VALID,0.441797,
2012-07-06, 03:01:04,VALID,998.032,VALID,0,VALID,92.6236,VALID,0,VALID,23.8573,VALID,143,VALID,0.476563,
2012-07-06, 03:02:04,VALID,998.042,VALID,0,VALID,92.8143,VALID,0,VALID,23.8768,VALID,143,VALID,0.312891,
2012-07-06, 03:03:04,VALID,998.031,VALID,0,VALID,92.9669,VALID,0,VALID,23.8573,VALID,143,VALID,0.28125,
2012-07-06, 03:04:04,VALID,998.027,VALID,0,VALID,93.1805,VALID,0,VALID,23.8768,VALID,143,VALID,0.155859,
2012-07-06, 03:05:04,VALID,998.041,VALID,0,VALID,93.1577,VALID,0,VALID,23.8573,VALID,143,VALID,0.0765625,
2012-07-06, 03:06:04,VALID,998.043,VALID,0,VALID,93.2034,VALID,0,VALID,23.8183,VALID,143,VALID,0,
2012-07-06, 03:07:04,VALID,998.072,VALID,0,VALID,93.1653,VALID,0,VALID,23.8183,VALID,143,VALID,0,
2012-07-06, 03:08:04,VALID,998.096,VALID,0,VALID,93.2263,VALID,0,VALID,23.7988,VALID,143,VALID,0,
2012-07-06, 03:09:04,VALID,998.115,VALID,0,VALID,93.295,VALID,0,VALID,23.7988,VALID,143,VALID,0,
2012-07-06, 03:10:04,VALID,998.139,VALID,0,VALID,93.3179,VALID,0,VALID,23.7597,VALID,143,VALID,0,
2012-07-06, 03:11:04,VALID,998.157,VALID,0,VALID,93.3331,VALID,0,VALID,23.7597,VALID,143,VALID,0,
2012-07-06, 03:12:04,VALID,998.175,VALID,0,VALID,93.356,VALID,0,VALID,23.7597,VALID,143,VALID,0,
2012-07-06, 03:13:04,VALID,998.216,VALID,0,VALID,93.4476,VALID,0,VALID,23.7384,VALID,143,VALID,0,
2012-07-06, 03:14:04,VALID,998.186,VALID,0,VALID,93.5163,VALID,0,VALID,23.7616,VALID,143,VALID,0,
2012-07-06, 03:15:04,VALID,998.234,VALID,0,VALID,93.5468,VALID,0,VALID,23.7384,VALID,143,VALID,0,
2012-07-06, 03:16:04,VALID,998.222,VALID,0,VALID,93.5849,VALID,0,VALID,23.7597,VALID,143,VALID,0,
2012-07-06, 03:17:04,VALID,998.221,VALID,0,VALID,93.6917,VALID,0,VALID,23.7597,VALID,143,VALID,0,
2012-07-06, 03:18:04,VALID,998.247,VALID,0,VALID,93.6765,VALID,0,VALID,23.7384,VALID,143,VALID,0,
2012-07-06, 03:19:04,VALID,998.262,VALID,0,VALID,93.646,VALID,0,VALID,23.7402,VALID,143,VALID,0.278906,
2012-07-06, 03:20:04,VALID,998.245,VALID,0,VALID,93.6002,VALID,0,VALID,23.7402,VALID,143,VALID,0.538281,
2012-07-06, 03:21:04,VALID,998.255,VALID,0,VALID,93.6307,VALID,0,VALID,23.7402,VALID,143,VALID,0.474609,
2012-07-06, 03:22:04,VALID,998.284,VALID,0,VALID,93.7375,VALID,0,VALID,23.7793,VALID,143,VALID,0.365234,
2012-07-06, 03:23:04,VALID,998.291,VALID,0,VALID,93.8062,VALID,0,VALID,23.7793,VALID,143,VALID,0.301172,
2012-07-06, 03:24:04,VALID,998.287,VALID,0,VALID,93.8672,VALID,0,VALID,23.8183,VALID,143,VALID,0.129688,
2012-07-06, 03:25:04,VALID,998.281,VALID,0,VALID,93.8672,VALID,0,VALID,23.8378,VALID,143,VALID,0.655469,
2012-07-06, 03:26:04,VALID,998.289,VALID,0,VALID,93.8672,VALID,0,VALID,23.8573,VALID,143,VALID,0.730859,
2012-07-06, 03:27:04,VALID,998.291,VALID,0,VALID,93.8596,VALID,0,VALID,23.8963,VALID,143,VALID,0.475391,
2012-07-06, 03:28:04,VALID,998.322,VALID,0,VALID,93.7299,VALID,0,VALID,23.9159,VALID,143,VALID,0.490234,
2012-07-06, 03:29:04,VALID,998.302,VALID,0,VALID,93.5239,VALID,0,VALID,23.9549,VALID,143,VALID,0.414453,
2012-07-06, 03:30:04,VALID,998.314,VALID,0,VALID,93.2187,VALID,0,VALID,23.9336,VALID,143,VALID,0.153906,
2012-07-06, 03:31:04,VALID,998.29,VALID,0,VALID,92.9059,VALID,0,VALID,23.9549,VALID,143,VALID,0.278906,
2012-07-06, 03:32:04,VALID,998.271,VALID,0,VALID,92.8601,VALID,0,VALID,23.9939,VALID,143,VALID,0.235938,
2012-07-06, 03:33:04,VALID,998.312,VALID,0,VALID,92.7075,VALID,0,VALID,23.9939,VALID,143,VALID,0.140625,
2012-07-06, 03:34:04,VALID,998.285,VALID,0,VALID,92.6236,VALID,0,VALID,24.0116,VALID,143,VALID,0.191016,
2012-07-06, 03:35:04,VALID,998.314,VALID,0,VALID,92.6388,VALID,0,VALID,24.0116,VALID,143,VALID,0,
2012-07-06, 03:36:04,VALID,998.321,VALID,0,VALID,92.6312,VALID,0,VALID,24.0116,VALID,143,VALID,0,
2012-07-06, 03:37:04,VALID,998.342,VALID,0,VALID,92.5778,VALID,0,VALID,24.0329,VALID,143,VALID,0,
2012-07-06, 03:38:04,VALID,998.337,VALID,0,VALID,92.4786,VALID,0,VALID,24.0329,VALID,143,VALID,0,
2012-07-06, 03:39:04,VALID,998.341,VALID,0,VALID,92.4176,VALID,0,VALID,24.0134,VALID,143,VALID,0,
2012-07-06, 03:40:04,VALID,998.351,VALID,0,VALID,92.4786,VALID,0,VALID,23.9939,VALID,143,VALID,0,
2012-07-06, 03:41:04,VALID,998.361,VALID,0,VALID,92.6083,VALID,0,VALID,23.9939,VALID,143,VALID,0,
2012-07-06, 03:42:04,VALID,998.356,VALID,0,VALID,92.616,VALID,0,VALID,23.9744,VALID,143,VALID,0,
2012-07-06, 03:43:04,VALID,998.338,VALID,0,VALID,92.6999,VALID,0,VALID,23.9744,VALID,143,VALID,0,
2012-07-06, 03:44:04,VALID,998.368,VALID,0,VALID,92.8067,VALID,0,VALID,23.9336,VALID,143,VALID,0,
2012-07-06, 03:45:04,VALID,998.335,VALID,0,VALID,92.9517,VALID,0,VALID,23.9549,VALID,143,VALID,0,
2012-07-06, 03:46:04,VALID,998.318,VALID,0,VALID,92.9822,VALID,0,VALID,23.9354,VALID,143,VALID,0,
2012-07-06, 03:47:04,VALID,998.313,VALID,0,VALID,93.0203,VALID,0,VALID,23.9159,VALID,143,VALID,0,
2012-07-06, 03:48:04,VALID,998.328,VALID,0,VALID,93.0661,VALID,0,VALID,23.9159,VALID,143,VALID,0.140234,